Content
SEND FEEDBACK

Daily
Averages
Monthly
Summary
Canada

STEVESTON, BRITISH COLUMBIA


Home > North America > Canada > British Columbia
Elevation: 7 feet     Latitude: 49 10N     Longitude: 123 10W

WEATHER
 
SELECT A DAY
Number of Records: 249,704;   Date Range: 5/15/97 - 8/31/14
 
SHARE

PRINT THIS DATA

[ ← Previous Day ]
WEATHER ALMANAC - MARCH 12, 2013
[ Next Day → ]
[ °C ]   °F
Weather ElementAverageHighLow
Temperature48.6 °F50 °F (1:15 pm)46.4 °F (12:35 am)
Dewpoint47.6 °F50 °F (2:15 pm)44.6 °F (12:35 am)
Humidity96.2 %100 % (2:15 am)93 % (12:35 am)
Barometer30.01 in30.08 in (12:35 am)29.94 in (8:55 am)
Wind Speed10.2 mph17.3 mph (9:35 am)
Wind Gust23 mph (9:55 pm)
Weather ElementAverage
Visibility7.4 mi
Wind DirectionSSW (190.3 °)

Weather ElementTotal
Precipitation0.20 in
Heating Degree Days16.8 (Base 65)
Averaged from 67 records on March 12, 2013
WEATHER CONDITIONS BREAKOUT
WIND DIRECTION BREAKOUT
WEATHER BY HOUR - MARCH 12, 2013
[ °C ]   °F
Local TimeTemperatureDewpointHumidityBarometerVisibilityWind DirectionWind SpeedGust SpeedPrecipitationEventsConditions
12:35 AM46.4 °F44.6 °F93 %30.08 in4.0 miSSW (210°)10.4 mphRainLight Rain
12:55 AM46.4 °F44.6 °F93 %30.08 in4.0 miSouth (190°)10.4 mphRainLight Rain
1:15 AM46.4 °F44.6 °F93 %30.07 in5.0 miSouth (180°)6.9 mphRainLight Rain
1:35 AM46.4 °F44.6 °F93 %30.07 in7.0 miSouth (190°)11.5 mphRainLight Rain
1:55 AM46.4 °F44.6 °F93 %30.06 in9.0 miSSW (200°)10.4 mph19.6 mphOvercast
2:15 AM46.4 °F46.4 °F100 %30.06 in10.0 miSSW (200°)10.4 mph18.4 mphOvercast
2:35 AM48.2 °F46.4 °F93 %30.06 in10.0 miSSW (200°)13.8 mphOvercast
2:55 AM48.2 °F46.4 °F93 %30.05 in10.0 miSSW (200°)13.8 mph18.4 mphOvercast
3:15 AM48.2 °F46.4 °F93 %30.04 in10.0 miSouth (190°)6.9 mphOvercast
3:35 AM48.2 °F46.4 °F93 %30.03 in10.0 miSSW (210°)10.4 mphOvercast
4:15 AM48.2 °F46.4 °F93 %30.02 in10.0 miSouth (190°)9.2 mphOvercast
4:35 AM48.2 °F46.4 °F93 %30.01 in10.0 miSSW (200°)8.1 mphOvercast
4:55 AM48.2 °F46.4 °F93 %30.00 in10.0 miSouth (190°)10.4 mph21.9 mphMostly Cloudy
5:15 AM48.2 °F46.4 °F93 %30.00 in10.0 miSouth (190°)12.7 mph16.1 mphMostly Cloudy
5:35 AM48.2 °F46.4 °F93 %29.99 in10.0 miSouth (180°)10.4 mphMostly Cloudy
6:15 AM48.2 °F46.4 °F93 %29.98 in10.0 miSouth (180°)12.7 mph21.9 mphMostly Cloudy
6:35 AM48.2 °F46.4 °F93 %29.98 in10.0 miSouth (180°)12.7 mph21.9 mphPartly Cloudy
6:55 AM48.2 °F46.4 °F93 %29.97 in10.0 miSouth (170°)9.2 mph19.6 mphPartly Cloudy
7:15 AM48.2 °F46.4 °F93 %29.97 in9.0 miSouth (180°)11.5 mph18.4 mphRainLight Rain
7:35 AM48.2 °F46.4 °F93 %29.95 in7.0 miSouth (180°)13.8 mph19.6 mphRainLight Rain
7:55 AM48.2 °F46.4 °F93 %29.95 in8.0 miSouth (180°)11.5 mph20.7 mphRainLight Rain
8:15 AM48.2 °F46.4 °F93 %29.95 in5.0 miSouth (180°)8.1 mph20.7 mphRainLight Rain
8:35 AM48.2 °F48.2 °F100 %29.95 in4.0 miSouth (180°)10.4 mph16.1 mphRainLight Rain
8:55 AM48.2 °F48.2 °F100 %29.94 in5.0 miSouth (180°)12.7 mph19.6 mphRainLight Rain
9:15 AM48.2 °F46.4 °F93 %29.94 in4.0 miSouth (190°)12.7 mph19.6 mphRainLight Rain
9:35 AM48.2 °F48.2 °F100 %29.94 in8.0 miSouth (190°)17.3 mph21.9 mphRainLight Rain
10:15 AM48.2 °F48.2 °F100 %29.97 in6.0 miSSW (200°)15.0 mph21.9 mphRainLight Rain
10:35 AM48.2 °F48.2 °F100 %29.99 in3.0 miSSW (200°)15.0 mph0.01 inRainLight Rain
10:55 AM48.2 °F48.2 °F100 %30.00 in1.8 miSouth (180°)8.1 mph18.4 mph0.03 inRainRain
11:15 AM48.2 °F48.2 °F100 %30.00 in2.0 miSouth (180°)8.1 mph0.02 inRainRain
11:35 AM48.2 °F48.2 °F100 %30.01 in3.0 miSouth (180°)8.1 mph0.04 inRainLight Rain
11:55 AM48.2 °F48.2 °F100 %30.01 in3.0 miSouth (180°)6.9 mph0.04 inRainLight Rain
12:15 PM48.2 °F48.2 °F100 %30.01 in2.5 miSouth (180°)5.8 mph16.1 mphRainLight Rain
12:35 PM48.2 °F48.2 °F100 %30.02 in2.0 miSouth (170°)6.9 mph0.02 inRainLight Rain
12:55 PM48.2 °F48.2 °F100 %30.02 in3.0 miSouth (170°)4.6 mph0.02 inRainLight Rain
1:15 PM50.0 °F48.2 °F94 %30.02 in2.0 miSSW (200°)12.7 mphRainLight Rain
1:35 PM50.0 °F48.2 °F94 %30.03 in1.2 miSSW (210°)10.4 mph16.1 mphRainLight Rain
1:55 PM50.0 °F48.2 °F94 %30.03 in2.0 miSSW (210°)9.2 mphRainLight Rain
2:15 PM50.0 °F50.0 °F100 %30.02 in5.0 miSSW (210°)8.1 mphOvercast
2:35 PM50.0 °F50.0 °F100 %30.02 in7.0 miSSW (200°)11.5 mphOvercast
2:55 PM50.0 °F50.0 °F100 %30.02 in10.0 miSSW (200°)10.4 mphMostly Cloudy
3:15 PM50.0 °F50.0 °F100 %30.01 in10.0 miSouth (190°)6.9 mphMostly Cloudy
3:35 PM50.0 °F50.0 °F100 %30.02 in10.0 miSouth (190°)8.1 mphOvercast
3:55 PM50.0 °F48.2 °F94 %30.02 in10.0 miSouth (190°)6.9 mphOvercast
4:15 PM50.0 °F48.2 °F94 %30.02 in10.0 miSouth (180°)4.6 mphOvercast
4:35 PM50.0 °F48.2 °F94 %30.01 in9.0 miSouth (170°)4.6 mphOvercast
4:55 PM50.0 °F48.2 °F94 %30.01 in10.0 miSouth (170°)5.8 mphOvercast
5:15 PM50.0 °F48.2 °F94 %30.01 in10.0 miSouth (180°)5.8 mphOvercast
5:35 PM50.0 °F48.2 °F94 %30.00 in10.0 miSouth (180°)9.2 mphOvercast
5:55 PM50.0 °F48.2 °F94 %30.00 in10.0 miSouth (190°)9.2 mphOvercast
6:15 PM50.0 °F48.2 °F94 %29.99 in10.0 miSouth (180°)8.1 mphOvercast
6:35 PM50.0 °F48.2 °F94 %29.99 in9.0 miSSW (200°)10.4 mph16.1 mphOvercast
6:55 PM50.0 °F48.2 °F94 %30.00 in9.0 miSSW (200°)9.2 mphOvercast
7:15 PM50.0 °F48.2 °F94 %30.00 in5.0 miSouth (190°)8.1 mphRainLight Rain
7:35 PM50.0 °F48.2 °F94 %30.00 in5.0 miSouth (190°)11.5 mphRainLight Rain
7:55 PM48.2 °F48.2 °F100 %30.00 in6.0 miSSW (200°)10.4 mphRainLight Rain
8:15 PM48.2 °F48.2 °F100 %30.00 in5.0 miSSW (200°)10.4 mphRainLight Rain
8:35 PM48.2 °F48.2 °F100 %30.00 in7.0 miSSW (200°)11.5 mph0.01 inRainLight Rain
8:55 PM48.2 °F48.2 °F100 %30.00 in9.0 miSSW (200°)13.8 mph0.01 inRainLight Rain
9:15 PM48.2 °F48.2 °F100 %29.99 in10.0 miSouth (180°)9.2 mphOvercast
9:35 PM48.2 °F48.2 °F100 %29.99 in10.0 miSouth (180°)10.4 mph17.3 mphOvercast
9:55 PM48.2 °F48.2 °F100 %30.00 in10.0 miSSW (200°)16.1 mph23.0 mphOvercast
10:15 PM48.2 °F48.2 °F100 %30.01 in10.0 miSSW (200°)13.8 mph20.7 mphOvercast
10:55 PM48.2 °F48.2 °F100 %30.01 in10.0 miSW (220°)13.8 mph21.9 mphOvercast
11:15 PM48.2 °F48.2 °F100 %30.01 in10.0 miSSW (200°)13.8 mphRainLight Rain
11:35 PM50.0 °F48.2 °F94 %30.02 in10.0 miSouth (190°)10.4 mph17.3 mphRainLight Rain
11:55 PM50.0 °F48.2 °F94 %30.02 in10.0 miSSW (200°)11.5 mph18.4 mphRainLight Rain
Hourly data recorded from CZBB, located miles away from Steveston, British Columbia







STORIES FROM OUR PARTNERS